STARLINK-1733, 46564

Orbit data source: Space-Track

STARLINK-1733, 46564 is a payload satellite owned by SpaceX/Seattle (US) in LEO that was launched on Tue, 06 Oct 2020 UTC via an FALCON 9 launch vehicle from the Air Force Eastern Test Range (AFETR). Payloads include a variety of satellites, spacecraft, and rockets equipped with specific instruments for various scientific and technological missions. These include communications satellites like Starlink; space stations such as the ISS; scientific satellites like the Hubble; Earth observation satellites from companies like Planet Labs, Umbra, and HawkEye 360; GPS; miniature CubeSats for education and research; and military/defense satellites.

Loading next visibility...
STARLINK-1733 details
Identifier
46564, 2020-070AJ
Orbit
LEO
Last TLE update8 hours ago
Origin
Flag of USSpaceX/Seattle (US)
ManufacturerSpaceX/Seattle
MissionOperational Commercial Communications
Bus & MotorSTARLINK, Unknown motor
Mass260 kg wet, ~248 kg dry
Launch date (UTC)
2020-10-06 (4 years ago)
Launch vehicle
FALCON 9
Launch site
Air Force Eastern Test Range (AFETR)
Object type
Payload
Rocket body
Debris
Shape & HBRBox + 1 Pan, 8.86 m
Radar Cross Section13.562 m², Large (>1 m²)

Expand to show TLE details & history

TLE from 8 hours ago
0 STARLINK-1733
1 46564U 20070AJ  24361.11413170  .00028334  00000-0  19120-2 0  9993
2 46564  53.0552 325.5366 0001637 105.2971 254.8199 15.06427040233699
Epoch: 2024-12-26T02:44Z
Definitive object data (Epoch: 2024-12-26T02:44:20.978Z)
Latitude-0.00004°
Longitude-170.64902°
Altitude548.305 km
Speed7.589 km/s
True Right ascension21h 42m 08s
True Declination0° 00' 00"
Sunlit
Object was in daylight at TLE epoch
Visualization TLE readout
Latitude-52.46792°
Longitude84.74753°
Altitude566.325 km
Speed7.577 km/s
Apparent Right ascension18h 31m 19s
Apparent Declination-59° 13' 33"
Sunlit
Object is in daylight
Visualization observer readout
Local Sidereal Time09:37:08
Azimuth139.407° SSE
Elevation-55.252°
Doppler factor1
Orbital elements
Apogee altitude548.533 km
Perigee altitude546.266 km
Semi-major axis6,925.536 km
Eccentricity0.0001637
Inclination53.0552°
RAAN325.5366°
Arg. of periapsis105.2971°
True anomaly254.8018°
Mean anomaly254.8199°
Eccentric anomaly254.81085°
Mean motion3.76585 °/min
BSTAR0.001912
Orbital period95.6 mins
Loading maneuver chart data...
Loading historical data...
Loading historical data...
Loading historical data...
Loading historical data...
Loading historical data...
Loading historical data...
Loading historical data...

STARLINK-1733 Visibility forecast

Observer location: undefined°, undefined

Span
Click to sort rows by Start time (UTC) header in descending order
Start Az.
Max El. time (UTC)
Max El. Az.
Max El.
End time (UTC)
End Az.
6 mins2024-12-26 23:34:59.003Z186.76° SSW2024-12-26 23:37:59.003Z137.917° SSE23.993°2024-12-26 23:40:59.003Z78.988° E
6 mins2024-12-27 01:14:59.003Z261.053° W2024-12-27 01:17:59.003Z342.651° N34.284°2024-12-27 01:20:59.003Z37.279° NE
6 mins2024-12-27 06:16:59.003Z335.171° NNW2024-12-27 06:18:59.003Z15.344° NNE27.598°2024-12-27 06:22:59.003Z93.369° ESE
5 mins2024-12-27 07:56:59.003Z282.449° WNW2024-12-27 07:58:59.003Z227.392° WSW33.237°2024-12-27 08:01:59.003Z161.352° S
|